Location: Laas
(43.4693°N, 0.3073°E)
Time: 13:08:22
(UTC+00:00)

CSL-04 Rocket - Pass Details

Date: 25 October 2020
Orbit: 805 x 861 km, 98.9° (Epoch: 24 November)

Event Time Altitude Azimuth Distance (km) Brightness Sun altitude
Rises 18:00:46 0° 136° (SE) 3,427 6.5 -11.8°
Reaches altitude 10° 18:03:21 10° 126° (SE) 2,493 5.7 -12.2°
Maximum altitude 18:08:12 32° 65° (ENE) 1,431 4.4 -13.1°
Drops below altitude 10° 18:13:02 10° 4° (N) 2,491 6.1 -14.0°
Sets 18:15:37 0° 355° (N) 3,424 6.9 -14.4°
